Location: �mondeville
(49.4591°N, 1.3431°W)
Time: 22:41:23
(UTC+00:00)

Cosmos 1707 - Pass Details

Date: 22 October 2019
Orbit: 515 x 532 km, 82.5° (Epoch: 14 November)

Event Time Altitude Azimuth Distance (km) Brightness Sun altitude
Exits shadow 04:45:18 49° 269° (W) 692 2.9 -18.8°
Maximum altitude 04:45:33 50° 284° (WNW) 684 2.9 -18.7°
Drops below altitude 10° 04:49:23 10° 0° (N) 1,793 5.5 -18.1°
Sets 04:51:36 0° 6° (N) 2,686 6.5 -17.8°
